BREEZE-M DEB (TANK), 42908

Orbit data source: Space-Track

BREEZE-M DEB (TANK), 42908 is space debris in HEO originally from a launch on Wed, 16 Aug 2017 UTC launched from the Tyuratam Missile And Space Complex (TTMTR). Debris objects in space refer to the collection of defunct objects orbiting the Earth. Examples of debris include non-operational satellites, rocket bodies, and fragments generated from explosions, collisions, or faulty payload assembly.

Loading next visibility...
Identifier
42908, 2017-046B
Orbit
HEO
Country
Flag of CISCIS
Related business
Manufacturer
Khrunichev
Mission
Spacecraft
Bus & Motor
BRIZ TANK, Unknown motor
Mass
~1,000 kg wet, 1,000 kg dry
Launch date (UTC)
2017-08-16 (8 years ago)
Launch vehicle
Unknown
Launch site
Tyuratam Missile And Space Complex (TTMTR)
Object type
Payload
Rocket body
Debris
Shape & HBR
Torus, 2.0 m
Radar Cross Section
8.218 m², Large (>1 m²)

Expand to show TLE details & history
Last TLE update: 16 hours ago

TLE from 16 hours ago
0 BREEZE-M DEB (TANK)
1 42908U 17046B   25354.57577809  .00007389  00000-0  16263-2 0  9995
2 42908  48.1269 190.0129 7199013  40.9364 355.1279  2.38852657 70963
Epoch: 2025-12-20T13:49Z
TLE epoch observation values (Epoch: 2025-12-20T13:49:07.226Z)
Latitude
-0.00037°
Longitude
-106.71532°
Altitude
988.523 km
Speed
9.558 km/s
True Right ascension
12h 39m 51s
True Declination
0° 00' 01"
Sunlit
Object was in daylight at epoch
Visualization orbit readout
Latitude
Unknown
Longitude
Unknown
Altitude
Unknown
Speed
Unknown
Apparent Right ascension
Unknown
Apparent Declination
Unknown
Sunlit
N/A
Visualization observer readout
Local Sidereal Time
05:04:20
Azimuth
Unknown
Elevation
Unknown
Doppler factor
Unknown
Orbital elements
Apogee altitude
34,282.06 km
Perigee altitude
243.678 km
Semi-major axis
23,641.006 km
Eccentricity
0.7199
Inclination
48.1269°
RAAN
190.0129°
Arg. of periapsis
40.9364°
True anomaly
319.8473°
Mean anomaly
355.1279°
Eccentric anomaly
343.21968°
Mean motion
0.5971 °/min
Orbital period
602.92 mins
BSTAR
0.0016263
Loading maneuver chart data...
Computing Atmospheric mass density...
Loading historical data...
Loading historical data...
Loading historical data...
Loading historical data...
Loading historical data...
Loading historical data...
Loading historical data...
Other satellites on launch #46 in the year 2017 (2017-08-16 UTC)

Documentation

Showing up to 5 results
|